This demonstration page uses our WeatherBlox Daily Observations layout. Learn more.

Left ArrowRight Arrow

39.92423, -83.80882

Hourly Observations for March 19, 2022

Temp ( °F °C ) Dew Point ( °F °C ) Humidity (%) Winds ( mph kmh ) Pressure ( in mb ) Visibility ( mi km ) Precip ( " mm )
12:56 am 00:56 Cloudy 57 13.9 55 12.8 93 93 S 9 15 29.63 1003 10 16 0.00 0.00
1:44 am 01:44 Cloudy with Nearby Thunderstorms 55 13 55 13 100 100 SW 14 22 29.65 1004 5 8 0.00 0.00
1:52 am 01:52 Cloudy with Nearby Thunderstorms 55 13 55 13 100 100 W 8 13 29.65 1004 5 8 0.00 0.00
1:53 am 01:53 Cloudy with Nearby Thunderstorms 56 13.3 56 13.3 100 100 W 9 15 29.65 1004 6 10 0.00 0.00
2:12 am 02:12 Cloudy with Rain 55 13 N/A N/A SW 12 19 29.65 1004 5 8 0.00 0.00
2:30 am 02:30 Cloudy with Light Rain 55 13 N/A N/A SW 13 20 29.66 1004 10 16 0.00 0.00
2:56 am 02:56 Cloudy with Light Rain 54 12 N/A N/A S 8 13 29.63 1003 10 16 0.00 0.00
3:56 am 03:56 Cloudy 54 12 N/A N/A SSW 9 15 29.62 1003 10 16 0.00 0.00
4:17 am 04:17 Cloudy 54 12 N/A N/A SSW 8 13 29.63 1003 10 16 0.00 0.00
4:54 am 04:54 Cloudy 54 12 N/A N/A SW 13 20 29.63 1003 10 16 0.00 0.00
4:56 am 04:56 Cloudy 54 12 N/A N/A SW 10 17 29.63 1003 10 16 0.00 0.00
5:05 am 05:05 Mostly Cloudy 54 12 N/A N/A SW 10 17 29.62 1003 10 16 0.00 0.00
5:56 am 05:56 Mostly Cloudy 54 12 N/A N/A SSW 9 15 29.63 1003 10 16 0.00 0.00
6:25 am 06:25 Mostly Cloudy 54 12 N/A N/A SSW 7 11 29.63 1003 10 16 0.00 0.00
6:56 am 06:56 Cloudy with Light Rain 54 12 N/A N/A SSW 16 26 29.63 1004 10 16 0.00 0.00
7:18 am 07:18 Cloudy 54 12 54 12 100 100 SSW 17 28 29.64 1004 10 16 0.00 0.00
7:35 am 07:35 Cloudy with Light Rain 52 11 52 11 100 100 SW 18 30 29.65 1004 8 13 0.00 0.00
7:56 am 07:56 Cloudy with Light Rain 52 11 N/A N/A SSW 17 28 29.66 1004 5 8 0.00 0.00
8:26 am 08:26 Cloudy 52 11 N/A N/A SW 18 30 29.67 1005 10 16 0.00 0.00
8:56 am 08:56 Cloudy with Mist and Fog 51 10.6 51 10.6 100 100 SW 23 37 29.68 1005 5 8 0.00 0.00
9:10 am 09:10 Cloudy with Light Rain 50 10 50 10 100 100 SW 18 30 29.69 1005 3 4 0.00 0.00
9:21 am 09:21 Cloudy with Light Rain 48 9 N/A N/A SW 17 28 29.70 1006 3 4 0.00 0.00
9:34 am 09:34 Cloudy with Light Rain 48 9 N/A N/A SW 23 37 29.70 1006 4 6 0.00 0.00
9:56 am 09:56 Cloudy with Light Rain 48 9 N/A N/A SW 17 28 29.70 1006 4 6 0.00 0.00
10:56 am 10:56 Cloudy with Light Rain 48 9 N/A N/A WSW 28 44 29.73 1007 4 6 0.00 0.00
11:15 am 11:15 Cloudy with Light Rain 46 8 N/A N/A WSW 23 37 29.76 1008 8 13 0.00 0.00
11:25 am 11:25 Cloudy with Light Rain 46 8 46 8 100 100 WSW 23 37 29.76 1008 10 16 0.00 0.00
11:56 am 11:56 Cloudy with Light Rain 48 8.9 45 7.2 89 89 WSW 29 46 29.75 1008 10 16 0.00 0.00
12:56 pm 12:56 Cloudy 48 8.9 45 7.2 89 89 WSW 23 37 29.76 1008 10 16 0.00 0.00
1:56 pm 13:56 Cloudy 48 8.9 45 7.2 89 89 WSW 21 33 29.79 1009 10 16 0.00 0.00
2:56 pm 14:56 Cloudy 48 8.9 44 6.7 86 86 WSW 21 33 29.80 1009 10 16 0.00 0.00
3:56 pm 15:56 Cloudy 47 8.3 42 5.6 83 83 WSW 21 33 29.82 1010 10 16 0.00 0.00
4:56 pm 16:56 Cloudy with Light Rain 44 6.7 44 6.7 100 100 W 20 31 29.85 1011 4 6 0.00 0.00
5:17 pm 17:17 Cloudy with Light Rain 43 6 N/A N/A WSW 18 30 29.88 1012 9 14 0.00 0.00
5:46 pm 17:46 Cloudy with Light Rain 43 6 43 6 100 100 W 22 35 29.89 1012 10 16 0.00 0.00
5:56 pm 17:56 Cloudy with Light Rain 43 6.1 43 6.1 100 100 WSW 20 31 29.87 1012 10 16 0.00 0.00
6:11 pm 18:11 Cloudy 43 6 43 6 100 100 WSW 22 35 29.90 1012 9 14 0.00 0.00
6:56 pm 18:56 Cloudy with Light Rain 42 5.6 42 5.6 100 100 W 18 30 29.90 1013 10 16 0.00 0.00
7:24 pm 19:24 Cloudy with Light Rain 41 5 41 5 100 100 WSW 17 28 29.93 1014 10 16 0.00 0.00
7:31 pm 19:31 Cloudy with Light Rain 41 5 N/A N/A WSW 20 31 29.94 1014 10 16 0.00 0.00
7:56 pm 19:56 Cloudy with Light Rain 41 5 N/A N/A WSW 14 22 29.94 1014 10 16 0.00 0.00
8:56 pm 20:56 Cloudy with Light Rain 39 4 N/A N/A W 21 33 29.95 1014 10 16 0.00 0.00
9:56 pm 21:56 Cloudy with Light Rain 39 4 N/A N/A WSW 14 22 29.97 1015 10 16 0.00 0.00
10:36 pm 22:36 Cloudy with Light Rain 39 4 N/A N/A W 17 28 30.00 1016 10 16 0.00 0.00
10:45 pm 22:45 Cloudy with Light Rain 39 4 N/A N/A W 15 24 30.00 1016 10 16 0.00 0.00
10:56 pm 22:56 Cloudy with Light Rain 40 4.4 40 4.4 100 100 W 16 26 29.98 1015 10 16 0.00 0.00
11:56 pm 23:56 Cloudy with Light Rain 39 4 N/A N/A W 14 22 30.00 1016 8 13 0.00 0.00

Powered by AerisWeather